* Astronomy

Members Login
Username 
 
Password 
    Remember Me  
Post Info TOPIC: KOMPASS-2 satellite re-entry


L

Posts: 131433
Date:
RE: KOMPASS-2 satellite re-entry
Permalink  
 


Update:
The KOMPASS-2 satellite re-entered the Earths atmosphere on the 28th December, 2011 @ 04:44 GMT  ± 15 minutes.

Inclination: 78.8°
Revolution Number:  31627
Predicted Location:  61.1°S, 308.2°E



__________________


L

Posts: 131433
Date:
Permalink  
 

Update:
The KOMPASS-2 satellite is predicted to re-enter the Earths atmosphere on the 28th December, 2011 @ 05:20 GMT  ± 10 hours.

KOMPASS-2
1 29157U 06019A   11360.87204961 +.02898823 -25396-6 +58202-3 0 08315
2 29157 078.8616 276.0331 0005045 152.8004 207.3631 16.31389629316064

Period:       88.39 minutes
Inclination: 78.86°
Apogee:     196 km
Perigee:     193 km
Revolution Number:  31630
Predicted Location:  30.8°N, 105°E



__________________


L

Posts: 131433
Date:
Permalink  
 

Update:
The KOMPASS-2 satellite is predicted to re-enter the Earths atmosphere on the 28th December, 2011 @ 05:20 GMT  ± 15 minutes.

KOMPASS-2
1 29157U 06019A   11361.11724327  .03987499 -23089-6  64960-3 0  8310
2 29157 078.8667 275.6086 0003117 213.2957 147.0367 16.33553954316106

Period:       88.69 minutes
Inclination: 78.87°
Apogee:     212 km
Perigee:     208 km
Revolution Number:  31630
Predicted Location:  28.5°N, 104.5°E



__________________


New

Posts: 2
Date:
KOMPASS-2 WILL RE-ENTER ON THE 27TH TO 28TH OF DEC
Permalink  
 


If you have the time. Please monitor and provide feedback. It was @ 196 x 199 km 26 Dec around 7AM UTC. NORAD# 29157 Also ARISSAT-1 AND PHOBOS GRUNT ARE NEARING THEIR ENDS 37772 AND 37872 RESPECTIVELY

__________________
MIKE HARTMAN

Date:
RE: KOMPASS-2 satellite re-entry
Permalink  
 


KOMPASS-2 NORAD #29157    My prediction is the 28-29 Dec

ARISSAT-1             # 37772    3-5 JAN

PHOBUS GRUNT      # 37872    7-10 JAN



__________________


L

Posts: 131433
Date:
Permalink  
 

Update:
The KOMPASS-2 satellite is predicted to re-enter the Earths atmosphere on the 22nd December, 2011 @ --:-- GMT  ± -- hours.

KOMPASS-2
1 29157U 06019A   11355.81037196  .01032820  69477-3  85785-3 0  8100
2 29157 078.8728 284.6842 0003930 032.0739 328.0809 16.14012243315248

Period:       89.36 minutes
Inclination: 78.87°
Apogee:     246 km
Perigee:     240 km
Revolution Number: -
Predicted Location:  -



__________________


L

Posts: 131433
Date:
Permalink  
 

Update:
The KOMPASS-2 satellite is predicted to re-enter the Earths atmosphere on the 18th December, 2011 @ --:-- GMT  ± -- hours.

KOMPASS-2
1 29157U 06019A   11346.97052033 +.00560488 +14242-3 +96735-3 0 07813
2 29157 078.8772 299.4893 0010856 038.5396 321.6440 16.02203309313826

Period:       89.91 minutes
Inclination: 78.88°
Apogee:     277 km
Perigee:     263 km
Revolution Number: -
Predicted Location:  -



__________________


L

Posts: 131433
Date:
Permalink  
 

Update:
The KOMPASS-2 satellite is predicted to re-enter the Earths atmosphere on the 16th December, 2011 @ --:-- GMT  ± -- hours.

KOMPASS-2
1 29157U 06019A   11318.30243618  .00220726  00000-0  95901-3 0  7153
2 29157 078.8849 346.3818 0018873 106.9388 253.4612 15.83940385309264

Period:       90.98 minutes
Inclination: 78.89°
Apogee:     336 km
Perigee:     310 km
Revolution Number: -
Predicted Location:  -



__________________


L

Posts: 131433
Date:
Permalink  
 

The KOMPASS-2 satellite that was launched on the 26th May, 2006, from a submarine in the Barents Sea is predicted to re-enter the Earths atmosphere on the 11th December, 2011 @ --:-- GMT  ± -- hours.

KOMPASS-2
1 29157U 06019A   11303.74741535  .00124959  00000-0  69518-3 0  6937
2 29157 078.8887 009.8175 0021920 159.4525 200.7172 15.78717163306966

Period:       91.22 minutes
Inclination: 78.89°
Apogee:     350 km
Perigee:     319 km
Revolution Number: -
Predicted Location:  -



__________________
Page 1 of 1  sorted by
 
Quick Reply

Please log in to post quick replies.



Create your own FREE Forum
Report Abuse
Powered by ActiveBoard